Temperature
19 20 21 21 21 22 21 19 18 17 15 15 15 15 15 14 14 14 14 14 14 15 15 16 17 17 18 18 18 18 17 16 15 14 13 13 13 12 11 11 11 11 11 11
20 21 21 21 20 20 18 18 17 15 14 14 14 14 13 12 12 12 12 12 13 13 14 14 15 15 16 17 18 17 17 16 15 14 13 13 12 12 11 11 11 11 11 11
17 19 19 18 18 16 14 14 14 13 12 12 12 12 11 11 11 11 11 11 12 12 12 13 13 14 15 16 16 17 17 16 15 14 13 13 12 12 11 11 11 11 11 11
16 18 19 18 17 16 13 11 12 11 11 11 11 12 12 12 11 11 10 11 11 11 11 11 12 13 14 15 15 16 16 16 15 14 14 13 12 12 11 11 11 11 11 11
16 17 18 17 15 15 14 11 10 10 10 10 10 11 12 12 10 10 10 10 10 10 10 10 11 11 12 13 14 14 15 15 15 14 14 13 12 12 12 11 11 11 11 11
16 17 16 14 13 14 15 11 9 9 9 9 9 9 10 11 10 10 10 10 10 10 10 10 10 10 10 11 12 12 13 14 14 14 14 13 13 12 12 11 11 11 11 11
16 16 14 11 12 14 13 11 9 9 9 8 8 8 9 10 10 10 10 10 10 10 10 10 10 9 9 10 10 10 11 12 13 14 14 13 13 12 12 11 11 11 11 11
14 15 13 10 10 10 9 10 9 9 9 8 8 9 9 10 10 10 10 10 10 10 10 10 9 9 9 9 9 9 10 11 12 13 13 13 13 12 12 11 11 11 11 11
11 11 9 9 10 10 9 9 9 9 9 9 9 9 9 10 10 10 10 10 10 10 10 10 9 9 9 9 9 9 9 10 11 12 13 13 13 12 11 11 11 11 11 11
10 10 10 10 10 10 10 9 9 9 9 9 9 9 9 10 10 10 10 10 10 10 9 9 9 9 9 8 8 8 8 9 10 11 12 12 13 12 12 11 11 11 11 11
9 9 9 10 11 11 10 10 10 10 10 10 9 9 10 9 10 9 9 9 9 9 9 9 9 9 9 8 8 8 8 8 9 10 12 12 12 12 12 12 12 12 12 12
8 9 9 10 11 11 10 10 10 10 10 10 9 9 9 9 9 9 9 9 8 9 9 9 9 9 8 8 8 7 7 8 8 10 11 12 12 12 12 12 12 12 12 12
10 11 10 10 10 10 10 10 10 9 9 9 9 9 9 8 8 8 8 8 8 8 8 8 8 8 8 8 8 7 7 7 8 9 10 11 12 12 11 11 11 11 11 11
11 10 10 10 10 10 10 9 9 9 9 9 8 8 8 8 7 7 7 7 7 7 7 7 7 8 8 8 8 7 7 7 8 8 9 11 11 12 12 11 11 10 11 11
10 10 10 10 10 9 9 9 9 9 8 8 8 8 7 7 6 6 6 6 5 5 6 6 6 7 7 7 7 7 7 7 7 8 9 10 11 11 12 12 11 11 11 11
10 10 10 9 9 9 9 9 9 8 8 8 7 7 6 6 6 5 5 5 4 4 5 5 5 6 7 7 7 7 7 7 7 8 8 9 10 11 11 11 11 11 11 11
10 9 9 9 9 9 9 9 8 8 8 7 7 6 6 5 5 4 4 4 4 4 4 4 4 5 6 6 7 7 7 7 7 8 8 9 10 11 11 11 11 11 11 11
9 9 9 9 9 9 9 9 8 8 7 7 6 6 5 5 4 4 3 3 3 3 3 4 4 5 5 6 6 7 7 7 7 8 8 9 10 11 11 11 12 12 12 11
9 9 9 9 9 9 8 8 8 7 7 6 6 5 4 4 3 3 3 3 3 3 3 3 4 4 5 6 6 7 7 7 7 8 8 9 10 10 11 11 12 12 12 11
9 9 9 9 9 8 8 8 7 7 6 5 5 4 4 3 3 3 3 3 3 3 3 3 3 4 5 5 6 7 7 7 7 8 8 9 10 10 10 11 12 12 12 12
9 9 9 8 8 8 7 7 6 6 5 4 4 3 3 3 3 3 3 3 4 4 4 3 3 4 5 5 6 7 7 7 7 8 8 9 10 10 11 11 11 12 12 12
9 9 8 8 7 7 7 6 5 5 4 4 3 3 3 3 3 4 4 4 4 4 4 4 4 4 5 5 6 7 7 7 7 8 8 9 10 10 11 11 12 12 12 12
8 8 8 7 7 6 6 5 5 4 4 3 3 3 3 4 4 4 4 5 4 4 4 4 4 5 5 6 6 7 7 7 7 8 9 9 10 11 11 11 12 12 12 12
8 7 7 6 6 5 5 4 4 3 3 3 3 3 4 4 4 5 5 5 5 5 4 5 5 5 6 6 6 7 7 7 8 8 9 10 10 11 11 12 12 12 12 12
7 6 6 5 5 4 4 3 3 3 3 3 3 4 4 4 5 5 5 5 5 5 5 5 6 6 6 7 7 7 7 7 8 9 9 10 11 11 11 12 12 12 12 12
6 6 5 4 4 3 3 2 2 2 2 3 3 4 4 5 5 6 6 6 6 6 6 6 7 7 7 7 7 7 7 8 8 9 10 10 11 11 12 12 12 12 12 12
5 5 4 3 3 3 2 2 2 2 2 3 3 4 5 5 5 6 6 6 7 7 7 7 7 7 7 7 7 7 8 8 8 9 10 11 11 11 12 12 12 12 12 12
Wind_Speed
7 8 7 10 13 14 10 7 6 6 7 7 9 9 11 13 15 17 17 18 18 16 15 13 12 10 9 8 8 8 8 8 8 7 6 5 3 2 2 3 4 4 6 7
4 6 8 7 11 7 8 7 8 10 8 8 8 9 12 14 15 15 15 16 17 17 17 17 16 15 14 11 9 8 9 9 8 8 7 6 5 3 2 1 2 3 4 6
4 7 6 5 8 6 8 10 7 6 6 10 11 12 8 10 14 14 15 15 16 15 14 15 15 16 17 15 10 8 9 9 9 9 9 8 6 5 4 2 1 2 3 5
2 3 2 3 7 11 12 12 12 8 8 10 11 11 2 7 11 13 15 15 14 14 14 13 13 14 16 16 10 8 9 9 9 10 10 9 7 6 5 4 3 3 4 5
4 3 5 4 6 6 3 5 9 8 10 12 13 10 3 5 8 10 11 11 11 11 11 12 12 13 15 16 12 9 9 9 10 11 11 10 10 8 6 5 5 5 5 6
3 3 5 3 11 15 1 3 6 9 11 13 13 11 8 12 15 15 13 11 11 11 11 12 12 12 13 14 13 11 10 10 10 11 12 13 12 9 6 5 6 7 6 6
2 4 1 6 13 11 3 5 9 9 10 11 8 8 13 16 16 14 14 14 12 11 10 11 12 11 12 13 13 14 14 12 9 10 12 13 12 9 7 7 8 8 8 6
3 3 2 8 7 4 3 7 9 11 12 12 13 16 17 17 16 16 16 15 13 11 11 10 9 9 11 12 13 13 14 13 10 10 11 11 12 11 9 10 10 9 8 6
3 1 1 0 2 6 7 8 10 11 14 15 17 19 19 18 17 17 16 15 13 12 12 11 10 8 10 12 13 13 14 13 11 10 10 12 13 13 11 10 9 9 9 8
4 2 2 5 6 6 8 11 14 15 17 17 19 20 20 18 17 15 15 14 13 12 12 12 11 10 10 11 11 12 13 13 11 10 10 11 12 12 12 12 11 10 10 9
3 3 7 7 8 10 12 14 16 18 18 19 19 20 19 17 16 14 14 13 12 12 13 14 12 11 11 10 9 11 12 12 12 10 11 12 12 12 14 13 14 13 11 11
2 6 6 10 12 14 16 17 19 19 18 16 15 16 16 14 12 13 13 12 12 12 12 13 12 12 11 9 8 8 10 11 11 8 8 10 11 9 11 11 17 18 16 14
6 8 9 12 14 16 16 17 17 15 14 14 12 12 13 12 11 12 13 14 14 14 13 13 12 12 11 9 8 7 9 9 10 9 7 10 12 12 10 6 12 17 18 19
9 9 10 12 13 14 14 14 13 13 13 14 13 13 13 13 12 14 14 14 14 14 14 13 12 12 11 10 9 8 8 9 9 8 7 9 12 12 12 12 10 6 9 16
11 10 11 13 12 13 13 13 14 14 14 14 13 14 14 15 16 16 15 15 14 14 14 13 12 13 11 10 9 9 7 6 7 7 6 7 10 12 12 12 11 9 5 5
10 11 12 13 14 14 15 15 15 15 15 16 15 15 16 17 18 18 16 15 15 15 14 14 13 13 11 10 9 8 7 10 8 6 6 6 9 11 12 12 11 11 11 9
10 11 12 14 15 16 15 15 15 16 16 17 17 17 18 19 19 19 18 17 16 16 15 14 14 13 12 10 9 7 7 7 8 7 6 6 9 11 12 13 12 12 11 13
11 11 13 15 17 18 18 16 17 17 17 17 18 19 19 20 20 21 21 19 18 18 16 14 14 12 11 10 8 7 6 5 5 6 6 6 8 11 12 13 14 13 10 11
13 13 14 16 17 17 16 17 17 15 15 16 18 19 20 21 22 22 21 20 19 18 16 13 16 13 11 11 11 7 6 6 5 6 6 6 8 10 12 13 13 13 13 12
13 15 16 17 16 16 17 16 15 15 16 17 19 21 22 23 23 22 20 18 15 14 13 12 11 10 10 11 12 6 6 6 6 6 5 5 8 10 12 13 14 13 13 12
15 16 17 17 16 16 16 15 15 16 16 17 20 23 24 24 23 20 17 15 14 13 12 13 10 8 8 8 9 6 6 6 6 6 5 5 7 10 11 12 13 13 13 12
14 15 16 16 16 16 14 13 14 17 19 21 24 25 24 23 22 19 16 12 12 12 9 7 7 9 10 9 5 5 6 6 6 5 5 6 7 10 11 12 12 13 13 12
13 13 13 15 15 15 15 15 16 18 20 23 25 25 24 22 17 15 14 9 8 9 7 6 8 11 12 6 5 5 6 6 5 5 5 5 7 8 10 11 11 12 12 12
11 12 14 13 13 13 16 18 19 19 20 22 22 23 22 18 15 12 10 11 10 10 6 7 11 12 9 4 5 5 5 5 4 3 4 5 6 7 8 9 10 11 12 13
12 12 12 13 14 13 15 18 20 20 20 20 22 23 19 15 14 13 11 9 9 7 6 8 11 11 7 5 5 5 4 4 3 2 3 3 4 5 6 8 9 10 11 11
11 11 11 11 12 12 14 16 17 18 18 20 20 20 18 15 14 11 9 8 8 8 6 5 5 6 5 5 5 5 4 3 3 2 3 3 4 5 6 7 10 9 10 10
11 10 9 11 12 13 14 16 17 18 19 19 21 21 19 16 14 13 11 8 7 6 5 5 4 4 4 4 4 4 3 3 3 3 3 3 3 4 6 8 8 8 9 9
Wind_Direction
229 250 270 290 300 298 289 255 199 130 94 25 4 15 25 29 26 24 18 12 7 3 358 347 334 312 283 250 221 197 186 187 193 191 186 180 186 233 293 329 349 2 29 38
291 281 294 310 334 345 20 26 87 96 62 356 349 21 33 29 25 19 10 4 0 358 356 353 344 333 317 283 244 207 194 195 191 182 181 184 190 205 235 299 340 14 49 60
269 300 346 14 4 68 65 32 51 61 21 351 355 5 17 19 16 5 356 351 349 347 344 343 341 336 329 306 269 220 204 196 188 183 184 188 189 194 203 212 224 99 88 86
213 355 276 167 69 97 95 59 45 43 10 357 338 315 322 33 6 344 338 336 334 332 330 329 331 334 334 328 294 245 218 203 192 186 186 184 182 193 203 193 175 150 132 117
161 213 246 115 31 357 311 79 30 8 350 341 328 310 259 6 342 318 314 313 311 312 314 318 325 329 334 337 321 281 243 220 203 191 185 182 185 193 194 180 170 157 145 133
166 219 253 337 333 321 306 117 17 350 334 331 341 338 313 326 324 316 311 309 307 310 314 318 319 324 330 333 331 312 284 250 217 194 186 186 187 185 183 174 166 153 147 145
277 259 84 339 324 339 20 311 318 312 309 312 306 277 285 298 300 294 294 295 295 298 302 305 310 320 324 325 326 321 308 285 240 202 191 187 182 176 173 168 159 155 150 149
357 319 335 358 16 43 277 274 283 291 292 289 283 282 286 288 288 290 293 291 288 288 290 292 297 309 313 313 312 315 312 296 258 216 195 186 177 176 172 167 164 161 152 147
50 54 152 287 192 228 245 269 278 279 282 282 283 285 286 286 286 288 286 285 283 281 285 286 285 287 294 302 310 312 313 304 274 231 202 180 178 178 174 173 172 171 166 163
94 93 254 255 253 256 256 262 270 274 278 281 281 283 285 285 285 283 282 281 280 278 279 282 280 278 276 287 301 304 307 308 286 239 207 185 180 179 180 182 180 177 175 171
79 310 310 289 278 274 275 278 283 285 285 285 286 289 291 294 294 293 291 286 280 276 274 276 277 275 277 283 294 300 304 311 299 250 209 189 183 185 185 188 186 181 181 175
253 252 251 270 275 282 289 291 292 294 294 293 291 293 297 299 299 299 298 293 288 281 275 275 273 273 276 276 276 288 299 308 308 273 217 191 182 181 191 182 184 183 179 174
234 250 253 269 279 285 288 289 292 293 295 298 298 296 298 298 297 297 297 298 294 288 284 279 273 271 274 273 264 265 281 294 306 288 232 192 180 177 174 173 181 184 181 178
266 278 283 281 284 289 291 294 296 297 296 294 294 294 295 294 294 295 296 295 294 292 290 285 278 273 270 270 261 258 270 284 296 293 257 201 183 181 179 175 173 180 193 189
287 285 281 288 293 297 298 300 303 303 298 293 290 291 294 296 296 294 291 290 291 290 289 285 281 277 273 270 263 256 261 270 281 292 273 216 186 178 177 176 174 165 143 159
292 296 297 298 300 301 302 301 301 297 296 296 297 296 296 296 295 294 292 289 288 286 287 285 282 279 277 273 267 257 251 263 275 286 276 225 187 177 175 173 169 169 170 162
312 309 307 307 307 304 302 300 298 300 301 302 303 302 301 301 300 298 295 291 284 280 278 277 278 279 277 274 265 256 247 253 267 277 265 228 191 180 176 173 173 174 175 172
296 293 296 300 304 306 305 303 303 305 305 304 306 308 307 306 303 301 298 295 288 282 274 270 271 274 275 273 263 251 243 241 249 264 259 227 193 181 176 174 174 172 166 169
295 292 294 297 300 302 304 305 306 307 305 308 312 310 307 305 302 300 297 293 288 284 278 267 266 270 273 271 271 248 236 238 250 257 248 216 192 181 177 175 173 172 168 166
297 299 302 305 307 307 309 310 311 312 311 313 314 312 310 308 305 302 297 290 282 276 273 268 266 265 266 271 270 241 228 235 249 254 236 207 188 179 178 176 174 171 169 171
307 309 311 314 314 314 315 316 317 315 315 317 317 314 312 309 307 303 298 294 285 275 269 264 262 259 258 262 262 236 227 233 248 245 223 200 184 175 173 172 170 172 173 176
311 314 318 319 319 321 321 319 317 318 320 320 319 316 314 312 310 306 294 284 281 276 270 261 255 256 257 262 245 229 229 235 247 238 206 188 178 170 169 168 167 170 175 177
316 318 319 320 323 322 321 322 323 324 323 321 319 317 316 313 311 307 306 294 284 277 269 260 258 265 271 263 240 230 234 239 241 225 193 176 168 167 166 165 167 169 173 176
321 321 322 323 326 326 327 328 327 325 322 320 318 318 319 318 315 309 300 295 289 279 269 262 264 270 267 246 239 236 238 237 230 210 176 164 159 160 162 163 167 170 173 175
323 324 327 331 334 331 327 327 327 325 324 324 322 322 323 320 317 317 312 306 298 286 273 266 264 261 248 234 232 232 227 213 214 193 166 154 156 160 163 164 167 170 172 177
327 330 329 327 327 325 328 329 327 325 326 325 326 326 326 326 323 321 318 311 301 291 280 269 261 247 230 224 224 217 205 192 203 198 177 169 163 165 168 170 170 172 175 179
329 330 328 331 330 330 330 328 326 325 325 325 326 326 327 331 333 334 330 325 317 302 288 276 258 240 228 219 210 196 182 180 191 187 184 181 179 176 176 176 176 174 175 178
Height
1515 1510 1506 1506 1502 1496 1498 1499 1508 1513 1517 1517 1512 1509 1505 1501 1498 1495 1492 1490 1489 1486 1483 1480 1477 1474 1471 1467 1463 1460 1458 1456 1455 1454 1452 1451 1449 1448 1446 1444 1442 1440 1437 1434
1512 1505 1503 1504 1501 1497 1501 1502 1506 1512 1520 1518 1514 1510 1506 1503 1500 1497 1495 1492 1489 1485 1481 1478 1474 1470 1466 1462 1459 1456 1453 1451 1451 1450 1449 1448 1448 1447 1446 1445 1444 1442 1440 1438
1520 1509 1507 1515 1511 1511 1516 1517 1515 1521 1525 1519 1514 1511 1508 1504 1501 1499 1495 1492 1488 1484 1480 1476 1471 1466 1460 1456 1453 1451 1448 1447 1446 1446 1446 1446 1446 1446 1445 1445 1445 1444 1443 1442
1520 1516 1521 1518 1511 1513 1520 1525 1524 1524 1524 1520 1517 1511 1507 1504 1502 1498 1494 1490 1486 1482 1477 1472 1467 1461 1455 1450 1447 1446 1444 1442 1442 1442 1442 1442 1443 1444 1444 1444 1445 1445 1445 1445
1522 1522 1515 1514 1515 1517 1518 1525 1527 1526 1523 1519 1514 1507 1503 1502 1499 1495 1491 1487 1483 1479 1474 1468 1463 1457 1451 1445 1441 1440 1438 1437 1436 1437 1437 1438 1439 1441 1442 1443 1444 1445 1446 1447
1518 1521 1525 1525 1519 1514 1514 1525 1527 1524 1520 1516 1510 1506 1500 1496 1493 1489 1486 1482 1478 1473 1468 1463 1458 1453 1447 1441 1436 1433 1432 1431 1431 1431 1432 1433 1434 1436 1439 1441 1442 1444 1446 1448
1519 1521 1522 1530 1521 1514 1521 1526 1524 1521 1517 1514 1511 1508 1500 1494 1489 1485 1481 1477 1473 1468 1463 1458 1454 1448 1443 1438 1432 1428 1425 1424 1424 1424 1425 1427 1429 1432 1435 1438 1440 1442 1445 1448
1524 1524 1529 1531 1525 1528 1531 1525 1521 1518 1514 1510 1505 1500 1494 1489 1483 1479 1474 1470 1466 1461 1456 1452 1448 1443 1437 1433 1428 1422 1418 1416 1416 1417 1419 1420 1423 1426 1430 1434 1437 1440 1443 1446
1530 1534 1534 1530 1529 1528 1525 1522 1518 1514 1509 1504 1498 1492 1486 1481 1476 1471 1467 1462 1458 1454 1449 1445 1442 1437 1432 1426 1421 1416 1412 1408 1407 1409 1411 1413 1416 1419 1424 1429 1433 1436 1439 1442
1531 1533 1532 1530 1527 1525 1522 1518 1513 1508 1503 1497 1491 1485 1479 1473 1468 1463 1459 1454 1450 1446 1441 1437 1434 1430 1425 1420 1415 1410 1406 1402 1399 1399 1402 1405 1408 1412 1417 1422 1427 1431 1435 1438
1534 1533 1530 1527 1524 1520 1516 1511 1506 1501 1497 1491 1485 1478 1473 1466 1461 1456 1451 1446 1442 1438 1433 1429 1425 1422 1418 1413 1408 1403 1399 1395 1391 1390 1393 1397 1400 1404 1409 1415 1419 1424 1429 1434
1536 1532 1529 1524 1519 1515 1510 1505 1501 1495 1490 1485 1480 1473 1467 1461 1455 1449 1443 1438 1433 1429 1424 1420 1417 1413 1410 1406 1401 1397 1393 1388 1383 1381 1384 1389 1393 1398 1404 1410 1416 1422 1426 1431
1530 1527 1524 1519 1515 1510 1506 1500 1495 1490 1484 1478 1472 1467 1460 1453 1447 1441 1436 1430 1425 1420 1415 1411 1408 1405 1402 1398 1394 1391 1387 1382 1377 1374 1376 1381 1386 1391 1397 1404 1411 1417 1423 1427
1528 1524 1520 1515 1510 1505 1500 1495 1489 1483 1477 1471 1464 1458 1451 1444 1438 1432 1427 1421 1416 1411 1406 1402 1399 1396 1394 1391 1387 1383 1380 1377 1372 1368 1369 1374 1379 1384 1390 1396 1403 1410 1417 1423
1525 1521 1516 1510 1505 1500 1494 1488 1481 1474 1468 1461 1455 1448 1441 1434 1427 1421 1415 1410 1405 1400 1396 1392 1389 1386 1385 1383 1379 1376 1373 1370 1366 1362 1363 1367 1372 1378 1384 1391 1397 1404 1411 1417
1520 1516 1511 1506 1499 1493 1487 1480 1473 1466 1459 1451 1445 1438 1431 1424 1416 1409 1403 1398 1393 1387 1384 1381 1378 1376 1375 1373 1371 1368 1365 1363 1361 1358 1357 1361 1367 1372 1378 1385 1391 1398 1405 1411
1516 1510 1504 1498 1492 1486 1480 1473 1466 1458 1450 1442 1434 1427 1419 1411 1403 1396 1390 1385 1380 1375 1372 1369 1366 1365 1364 1363 1362 1360 1358 1357 1355 1353 1353 1356 1361 1367 1373 1379 1386 1393 1399 1406
1513 1508 1501 1495 1487 1479 1471 1465 1457 1449 1441 1433 1425 1417 1408 1400 1391 1383 1376 1371 1366 1361 1358 1356 1355 1354 1354 1354 1353 1352 1351 1351 1349 1348 1348 1351 1356 1362 1368 1375 1381 1388 1395 1401
1507 1501 1495 1488 1481 1473 1465 1457 1449 1441 1433 1425 1416 1407 1398 1389 1380 1371 1364 1358 1353 1348 1345 1344 1344 1344 1344 1345 1345 1345 1345 1345 1344 1344 1344 1347 1352 1358 1364 1371 1377 1384 1390 1396
1501 1495 1488 1481 1474 1467 1458 1450 1442 1434 1425 1417 1407 1396 1387 1377 1368 1360 1352 1346 1342 1338 1335 1334 1334 1334 1335 1337 1338 1338 1339 1339 1339 1339 1340 1343 1348 1353 1360 1367 1374 1380 1386 1392
1494 1488 1481 1474 1467 1460 1452 1444 1436 1427 1418 1409 1398 1387 1377 1366 1358 1350 1341 1335 1331 1328 1326 1325 1326 1327 1328 1330 1331 1332 1333 1334 1334 1334 1336 1340 1344 1350 1357 1364 1370 1376 1382 1388
1489 1483 1476 1469 1461 1453 1446 1439 1430 1420 1410 1400 1389 1379 1368 1357 1348 1340 1333 1328 1323 1321 1319 1318 1319 1321 1323 1325 1326 1327 1328 1329 1329 1330 1333 1337 1342 1348 1354 1361 1367 1373 1379 1384
1485 1478 1472 1464 1457 1449 1440 1432 1424 1414 1403 1393 1381 1370 1360 1350 1341 1333 1326 1321 1318 1315 1314 1314 1315 1317 1319 1321 1322 1323 1324 1324 1325 1327 1330 1335 1340 1346 1353 1359 1365 1371 1376 1381
1481 1474 1468 1460 1453 1444 1435 1426 1417 1408 1398 1387 1376 1365 1355 1344 1335 1329 1323 1318 1315 1312 1311 1312 1313 1314 1316 1318 1319 1319 1320 1321 1322 1325 1329 1334 1340 1346 1352 1357 1363 1368 1374 1379
1477 1470 1463 1456 1448 1440 1432 1422 1411 1401 1391 1381 1370 1360 1350 1342 1334 1327 1321 1317 1313 1312 1311 1311 1312 1313 1314 1315 1316 1317 1318 1319 1321 1324 1328 1334 1339 1345 1350 1356 1361 1366 1371 1376
1473 1467 1461 1454 1447 1439 1429 1419 1409 1398 1389 1378 1367 1357 1347 1339 1332 1326 1321 1317 1314 1312 1311 1311 1311 1312 1312 1313 1314 1315 1317 1319 1322 1326 1330 1335 1340 1345 1349 1354 1359 1364 1369 1373
1470 1463 1456 1448 1441 1433 1425 1416 1407 1397 1387 1378 1367 1356 1347 1340 1332 1327 1322 1318 1315 1313 1312 1311 1311 1311 1311 1312 1313 1315 1317 1320 1323 1327 1331 1336 1340 1344 1349 1353 1358 1362 1367 1371